This demonstration page uses our WeatherBlox Daily Observations layout. Learn more.

36.17497, -115.13722

Hourly Observations for February 7, 2015

Temp ( °F °C ) Dew Point ( °F °C ) Humidity (%) Winds ( mph kmh ) Pressure ( in mb ) Visibility ( mi km ) Precip ( " mm )
12:53 am 00:53 Clear 61 16.1 23 -5 23 23 SW 8 13 30.07 1018 10 16.0934 0 0
1:53 am 01:53 Clear 60 15.6 20 -6.7 21 21 SSW 10 17 30.05 1018 10 16.0934 0 0
2:53 am 02:53 Clear 63 17.2 21 -6.1 20 20 SSW 13 20 30.04 1017 10 16.0934 0 0
3:53 am 03:53 Clear 63 17.2 23 -5 22 22 SSW 17 28 30 1016 10 16.0934 0 0
4:53 am 04:53 Clear 62 16.7 23 -5 22 22 SSW 9 15 30.04 1017 10 16.0934 0 0
5:53 am 05:53 Clear 61 16.1 19 -7.2 20 20 E 9 15 30.04 1017 10 16.0934 0 0
6:53 am 06:53 Sunny 63 17.2 19 -7.2 18 18 S 14 22 30.05 1018 10 16.0934 0 0
7:53 am 07:53 Sunny 61 16.1 21 -6.1 21 21 ESE 7 11 30.08 1019 10 16.0934 0 0
8:53 am 08:53 Sunny 63 17.2 29 -1.7 28 28 E 10 17 30.1 1019 10 16.0934 0 0
9:53 am 09:53 Sunny 66 18.9 27 -2.8 23 23 E 10 17 30.11 1020 10 16.0934 0 0
10:53 am 10:53 Sunny 68 20 28 -2.2 22 22 E 7 11 30.1 1019 10 16.0934 0 0
11:53 am 11:53 Sunny 72 22.2 30 -1.1 21 21 VRB 3 6 30.07 1018 10 16.0934 0 0
12:53 pm 12:53 Sunny 73 22.8 34 1.1 24 24 VRB 6 9 30.04 1017 10 16.0934 0 0
1:53 pm 13:53 Sunny 75 23.9 35 1.7 23 23 E 9 15 30.01 1016 10 16.0934 0 0
2:53 pm 14:53 Sunny 76 24.4 36 2.2 23 23 ENE 9 15 30 1016 10 16.0934 0 0
3:53 pm 15:53 Sunny 75 23.9 38 3.3 26 26 ESE 6 9 30.01 1016 10 16.0934 0 0
4:53 pm 16:53 Mostly Cloudy 73 22.8 34 1.1 24 24 Calm 30.02 1017 10 16.0934 0 0
5:53 pm 17:53 Cloudy 73 22.8 45 7.2 37 37 SW 12 19 30.04 1017 10 16.0934 0 0
6:53 pm 18:53 Cloudy 71 21.7 46 7.8 41 41 WSW 12 19 30.04 1017 10 16.0934 0 0
7:53 pm 19:53 Mostly Clear 69 20.6 47 8.3 45 45 SW 10 17 30.06 1018 10 16.0934 0 0
8:53 pm 20:53 Clear 69 20.6 48 8.9 47 47 SSW 10 17 30.05 1018 10 16.0934 0 0
9:53 pm 21:53 Clear 68 20 48 8.9 49 49 SW 12 19 30.04 1017 10 16.0934 0 0
10:53 pm 22:53 Clear 63 17.2 45 7.2 52 52 NE 6 9 30.07 1018 10 16.0934 0 0
11:53 pm 23:53 Clear 62 16.7 46 7.8 56 56 NE 8 13 30.07 1018 10 16.0934 0 0

Powered by AerisWeather